ION-SCV-021

导读

ION-SCV-021是D-Orbit公司ION卫星运载船系列的一颗规划航天器,计划于2025年11月28日发射,发射归属暂未明确。它可将多颗不同规格(1U至16U立方星及微型卫星)客户载荷精准部署至独立轨道槽,完成部署后,还可作为长寿命平台,承载空间监视跟踪等拓展任务,助力构建空间态势感知基础设施。

Basic Information
目录编号:
67483
目录名称:
ION-SCV-021
国际标识:
2025-276ED
轨道中心:
EARTH
卫星名称:
ION-SCV-021
卫星全名:
ION-SCV-021
卫星状态:
在轨 (已飞行280 天)
发射日期:
2025-11-28 UTC
国别 :
意大利 (IT)
星等 :
--
Orbit Information
数据来源 国际轨道数据
星历时间: 2026-09-04T11:23:55+0800
15小时前
查看轨道信息
半长轴: 6951.093km
偏心率: 0.0009293
轨道倾角: 97.518°
近地点辐角 200.086°
升交点赤经 314.713°
平近点角 160.000°
近地点: 566.496km
远地点: 579.416km
周期: 96.126分钟
每日圈数: 14.980392
Detailed Information
使用方式:
暂无
2D Orbit Map
3D Orbit Map
Orbit Altitude Analysis Chart
Orbit Inclination Analysis Chart
Orbit Comprehensive Analysis Chart
View Comprehensive Chart
Conjunction Data List
Event ID Objects TCA Miss Dist (km) Collision Risk Probability Collision Risk Index (CRI) Action
CDM_260906-035604-003706-748322
2026-09-06T
03:56:46+0000
0.522 km
远距离
1.693436E-4 高风险 0.8
CDM_260906-052903-976706-748323
2026-09-06T
05:29:01+0000
1.056 km
极远距离
8.793877E-6 低风险 0.54
CDM_260906-053705-578306-748322
2026-09-06T
05:37:12+0000
1.927 km
极远距离
3.132998E-6 低风险 0.45
CDM_260905-213605-578206-748322
2026-09-05T
21:36:29+0000
2.938 km
极远距离
1.368441E-6 低风险 0.38
CDM_260906-164806-480306-748321
2026-09-06T
16:48:38+0000
2.798 km
极远距离
1.18032E-6 低风险 0.36
CDM_260906-182104-145606-748321
2026-09-06T
18:21:41+0000
2.778 km
极远距离
3.125061E-7 极低风险 0.25